Flag for Canada Weather past 2 weeks in Churchill, Manitoba, Canada

Now
39 °F

Light rain. Low clouds.


Feels Like: 31 °F
Forecast: 40 / 46 °F
Wind: 15 mph from Southwest

Location: Churchill

Current Time: Sep 18, 2014 at 7:09:03 PM

Latest Report: Sep 18, 2014 at 6:00 PM


Visibility: 10 mi

Pressure: 29.50 "Hg

Humidity: 93%

Dew point: 37 °F

Location of ChurchillLocation

Historic Weather in Churchill — Graph

°F

Churchill temperature yesterday

Maximum temperature yesterday: 36 °F (at 3:00 PM)
Minimum temperature yesterday: 28 °F (at 10:00 PM)
Average temperature yesterday: 33 °F

Past Weeks' High & Low Weather Summary

 TemperatureHumidityPressure
High54 °F (Sep 11, 3:00 PM)100% (Sep 4, 3:00 AM)30.28 "Hg (Sep 4, 3:00 AM)
Low28 °F (Sep 17, 10:00 PM)44% (Sep 7, 1:00 PM)29.50 "Hg (Sep 18, 6:00 PM)
Average41 °F75%29.95 "Hg
* Reported Sep 3 6:00 PM — Sep 18 6:00 PM, Churchill, Weather by CustomWeather, © 2014

Note: Actual official high and low records may vary slightly from our data, if they occured in-between our weather recording intervals... More about our weather records

Advertising

Churchill weather history for previous 24 hours

 ConditionsComfort  
Time TempWeatherWind HumidityBarometerVisibility
6:00 PM
Sep 18
39 °FLight rain. Low clouds.15 mph93%29.50 "Hg10 mi
5:00 PM39 °FLight rain. Mostly cloudy.22 mph93%29.50 "Hg15 mi
4:00 PM37 °FLight rain. Mostly cloudy.18 mph93%29.55 "Hg10 mi
3:00 PM37 °FLight rain. More clouds than sun.21 mph93%29.57 "Hg10 mi
2:00 PM37 °FLight rain. Overcast.25 mph87%29.60 "Hg10 mi
1:00 PM37 °FMore clouds than sun.22 mph87%29.65 "Hg15 mi
12:00 PM37 °FLight rain. More clouds than sun.22 mph81%29.72 "Hg15 mi
11:46 AM39 °FLight rain. More clouds than sun.22 mph70%29.72 "Hg15 mi
11:00 AM39 °FMore clouds than sun.21 mph70%29.75 "Hg15 mi
10:00 AM37 °FBroken clouds.18 mph70%29.78 "Hg15 mi
9:00 AM34 °FOvercast.18 mph75%29.83 "Hg15 mi
8:00 AM32 °FOvercast.17 mph80%29.86 "Hg15 mi
7:00 AM32 °FOvercast.13 mph75%29.90 "Hg15 mi
6:00 AM30 °FPassing clouds.14 mph80%29.93 "Hg15 mi
5:00 AM30 °FPassing clouds.15 mph80%29.96 "Hg15 mi
4:00 AM30 °FPassing clouds.14 mph80%29.98 "Hg15 mi
3:00 AM30 °FPassing clouds.13 mph80%30.01 "Hg15 mi
2:00 AM30 °FClear.17 mph80%30.02 "Hg15 mi
1:00 AM28 °FClear.14 mph86%30.04 "Hg15 mi
12:00 AM28 °FClear.12 mph86%30.06 "Hg15 mi
11:00 PM
Sep 17
28 °FClear.8 mph86%30.07 "Hg15 mi
10:00 PM28 °FPassing clouds.8 mph86%30.08 "Hg15 mi
9:00 PM30 °FPassing clouds.8 mph80%30.09 "Hg15 mi
8:00 PM34 °FBroken clouds.5 mph75%30.11 "Hg15 mi
7:00 PM34 °FPartly sunny.3 mph70%30.12 "Hg15 mi
Weather by CustomWeather, © 2014

See weather overviewHow to use our weather pages